Belfast, United Kingdom

5:00 PM GMT on November 21, 2019 (GMT +0000)
Aldergrove

Weather History for EGAA - October, 2019

Change the Weather History Date:

Wednesday, October 23, 2019

  Actual Average Record
Temperature  
Mean Temperature 52 °F -  
Max Temperature 55 °F 50 °F 60 °F (2001)
Min Temperature 48 °F 39 °F 30 °F (2003)
Degree Days  
Heating Degree Days 14    
Growing Degree Days 2 (Base 50)    
Moisture  
Dew Point 47 °F    
Average Humidity 84    
Maximum Humidity 100    
Minimum Humidity 64    
Precipitation  
Precipitation 0.12 in 0.11 in - ()
Sea Level Pressure  
Sea Level Pressure 29.73 in    
Wind  
Wind Speed 11 mph ()    
Max Wind Speed 20 mph    
Max Gust Speed 25 mph    
Visibility 6.5 miles    
Events Rain    
Averages and records for this station are not official NWS values.
T = Trace of Precipitation, MM = Missing Value Source: Averaged Metar Reports

Daily Weather History Graph

Daily Weather History Graph

Search for Another Location

Airport or City:

Astronomy

Oct. 23, 2019 Rise Set
Actual Time 8:08 AM IST 6:08 PM IST
Civil Twilight 7:31 AM IST 6:45 PM IST
Nautical Twilight 6:49 AM IST 7:27 PM IST
Astronomical Twilight 6:08 AM IST 8:09 PM IST
Moon 12:57 AM IST (10/23) 4:55 PM IST (10/23)
Length of Visible Light 11h 14m
Length of Day
10h 00m
Waning Crescent, 29% of the Moon is Illuminated
Oct 23
Waning Crescent
Oct 28
New
Nov 4
First Quarter
Nov 12
Full
Nov 19
Last Quarter

Hourly Weather History & Observations

Time (IST) Temp. Dew Point Humidity Pressure Visibility Wind Dir Wind Speed Gust Speed Precip Events Conditions
12:00 AM 49 °F 44 °F 79% 29.96 in 31 mi South 12.7 mph - -   Scattered Clouds
12:20 AM 50.0 °F 44.6 °F 82% 29.95 in 6.2 mi South 9.2 mph - N/A   Partly Cloudy
12:50 AM 48.2 °F 44.6 °F 87% 29.95 in 6.2 mi South 10.4 mph - N/A   Scattered Clouds
1:00 AM 49 °F 44 °F 79% 29.94 in 31 mi South 11.5 mph - -   Scattered Clouds
1:20 AM 48.2 °F 44.6 °F 87% 29.92 in 6.2 mi South 10.4 mph - N/A   Mostly Cloudy
1:50 AM 48.2 °F 44.6 °F 87% 29.92 in 6.2 mi South 9.2 mph - N/A   Mostly Cloudy
2:20 AM 48.2 °F 46.4 °F 93% 29.92 in 6.2 mi South 9.2 mph - N/A   Mostly Cloudy
2:50 AM 50.0 °F 46.4 °F 87% 29.92 in 6.2 mi South 10.4 mph - N/A   Mostly Cloudy
3:00 AM 49 °F 45 °F 82% 29.91 in 31 mi South 12.7 mph - -   Mostly Cloudy
3:20 AM 50.0 °F 46.4 °F 87% 29.89 in 6.2 mi South 9.2 mph - N/A   Scattered Clouds
3:50 AM 50.0 °F 46.4 °F 87% 29.86 in 6.2 mi South 8.1 mph - N/A   Overcast
4:00 AM 49 °F 45 °F 83% 29.87 in 25 mi South 10.4 mph - -   Mostly Cloudy
4:20 AM 48.2 °F 46.4 °F 93% 29.86 in 6.2 mi South 8.1 mph - N/A   Scattered Clouds
4:50 AM 48.2 °F 46.4 °F 93% 29.83 in 6.2 mi South 9.2 mph - N/A   Scattered Clouds
5:00 AM 49 °F 46 °F 85% 29.85 in 22 mi South 12.7 mph - -   Scattered Clouds
5:20 AM 50.0 °F 46.4 °F 87% 29.83 in 6.2 mi South 8.1 mph - N/A   Mostly Cloudy
5:50 AM 50.0 °F 46.4 °F 87% 29.83 in 6.2 mi South 11.5 mph - N/A   Mostly Cloudy
6:00 AM 50 °F 47 °F 85% 29.83 in 22 mi South 13.8 mph - -   Scattered Clouds
6:50 AM 50.0 °F 48.2 °F 94% 29.80 in 6.2 mi South 11.5 mph - N/A   Scattered Clouds
7:00 AM 51 °F 47 °F 81% 29.81 in 25 mi South 15.0 mph - -  
7:20 AM 50.0 °F 48.2 °F 94% 29.80 in 6.2 mi South 11.5 mph - N/A   Scattered Clouds
7:50 AM 50.0 °F 46.4 °F 87% 29.77 in 6.2 mi South 12.7 mph - N/A   Mostly Cloudy
8:00 AM 51 °F 47 °F 80% 29.79 in 25 mi South 17.3 mph - -   Mostly Cloudy
8:20 AM 51.8 °F 46.4 °F 82% 29.80 in 6.2 mi South 11.5 mph - N/A   Mostly Cloudy
8:50 AM 51.8 °F 46.4 °F 82% 29.80 in 6.2 mi South 10.4 mph - N/A   Mostly Cloudy
9:00 AM 51 °F 46 °F 78% 29.79 in 28 mi South 16.1 mph - -   Overcast
9:20 AM 51.8 °F 46.4 °F 82% 29.80 in 6.2 mi South 13.8 mph 25.3 mph N/A   Mostly Cloudy
9:50 AM 51.8 °F 46.4 °F 82% 29.77 in 6.2 mi South 12.7 mph 24.2 mph N/A   Mostly Cloudy
10:00 AM 53 °F 46 °F 70% 29.79 in 28 mi South 18.4 mph - -   Overcast
10:20 AM 51.8 °F 46.4 °F 82% 29.77 in 6.2 mi South 15.0 mph - N/A   Scattered Clouds
10:50 AM 53.6 °F 46.4 °F 77% 29.74 in 6.2 mi South 13.8 mph - N/A   Mostly Cloudy
11:00 AM 54 °F 46 °F 65% 29.75 in 22 mi South 19.6 mph - -   Mostly Cloudy
11:20 AM 53.6 °F 46.4 °F 77% 29.74 in 6.2 mi South 15.0 mph - N/A   Mostly Cloudy
11:50 AM 53.6 °F 46.4 °F 77% 29.74 in 6.2 mi South 13.8 mph - N/A   Mostly Cloudy
12:00 PM 54 °F 45 °F 64% 29.73 in 25 mi South 18.4 mph - -   Mostly Cloudy
12:20 PM 53.6 °F 46.4 °F 77% 29.71 in 6.2 mi South 13.8 mph - N/A   Partly Cloudy
12:50 PM 53.6 °F 46.4 °F 77% 29.68 in 6.2 mi South 13.8 mph - N/A   Scattered Clouds
1:00 PM 54 °F 46 °F 65% 29.70 in 28 mi South 16.1 mph - -   Scattered Clouds
1:20 PM 53.6 °F 46.4 °F 77% 29.68 in 6.2 mi South 12.7 mph - N/A   Mostly Cloudy
1:50 PM 55.4 °F 48.2 °F 77% 29.65 in 6.2 mi South 11.5 mph - N/A   Mostly Cloudy
2:00 PM 55 °F 46 °F 64% 29.66 in 28 mi South 16.1 mph - -   Mostly Cloudy
2:20 PM 55.4 °F 48.2 °F 77% 29.65 in 6.2 mi South 15.0 mph - N/A   Mostly Cloudy
2:50 PM 55.4 °F 48.2 °F 77% 29.65 in 6.2 mi South 12.7 mph - N/A   Mostly Cloudy
3:20 PM 53.6 °F 48.2 °F 82% 29.62 in 6.2 mi South 11.5 mph - N/A Rain Light Rain
3:50 PM 53.6 °F 48.2 °F 82% 29.62 in 5.6 mi South 10.4 mph - N/A Rain Light Rain
4:00 PM 53 °F 49 °F 80% 29.62 in 6 mi South 13.8 mph - - Rain Rain Showers
4:20 PM 51.8 °F 50.0 °F 94% 29.59 in 6.2 mi South 11.5 mph - N/A Rain Light Rain
4:50 PM 51.8 °F 48.2 °F 88% 29.59 in 6.2 mi South 13.8 mph - N/A Rain Light Rain
5:00 PM 52 °F 48 °F 81% 29.60 in 22 mi South 16.1 mph - - Rain Light Rain
5:20 PM 51.8 °F 48.2 °F 88% 29.59 in 6.2 mi South 11.5 mph - N/A Rain Light Rain
5:50 PM 51.8 °F 48.2 °F 88% 29.56 in 6.2 mi South 12.7 mph 24.2 mph N/A Rain Light Rain
6:20 PM 50.0 °F 48.2 °F 94% 29.56 in 6.2 mi South 12.7 mph - N/A Rain Light Rain
6:50 PM 50.0 °F 48.2 °F 94% 29.56 in 6.2 mi South 12.7 mph - N/A Rain Light Rain
7:00 PM 51 °F 48 °F 87% 29.57 in 22 mi South 16.1 mph - - Rain Light Rain
7:20 PM 50.0 °F 50.0 °F 100% 29.56 in 6.2 mi South 11.5 mph - N/A Rain Light Rain
7:50 PM 51.8 °F 50.0 °F 94% 29.56 in 6.2 mi South 13.8 mph - N/A Rain Light Rain
8:00 PM 51 °F 49 °F 91% 29.56 in 10 mi South 16.1 mph - - Rain Rain
8:50 PM 51.8 °F 50.0 °F 94% 29.53 in 6.2 mi South 12.7 mph - N/A   Mostly Cloudy
9:00 PM 52 °F 49 °F 87% 29.54 in 19 mi South 16.1 mph - - Rain Rain
9:20 PM 51.8 °F 50.0 °F 94% 29.53 in 6.2 mi South 12.7 mph - N/A   Mostly Cloudy
9:50 PM 51.8 °F 50.0 °F 94% 29.53 in 6.2 mi South 12.7 mph - N/A   Overcast
10:20 PM 51.8 °F 50.0 °F 94% 29.53 in 6.2 mi South 13.8 mph - N/A   Mostly Cloudy
10:50 PM 51.8 °F 50.0 °F 94% 29.53 in 6.2 mi SSW 10.4 mph - N/A   Partly Cloudy
11:00 PM 51 °F 49 °F 92%  in 28 mi SSW 11.5 mph - -   Scattered Clouds
11:20 PM 51.8 °F 50.0 °F 94% 29.53 in 6.2 mi SSW 9.2 mph - N/A   Mostly Cloudy